EW8829 Weather Reports


time (UTC)temp
F
wind
direction
speed
knots
gust
knots
rain 1hr
in
rain 24hr
in
rain mn
in
humidity
%
barometer
mb
20260906184534 75 133 0.0 1.7 0.00 0.00 0.00 57 1015.6
20260906184030 72 356 1.7 3.5 0.00 0.00 0.00 59 1015.7
20260906183526 73 39 1.7 2.6 0.00 0.00 0.00 58 1015.6
20260906183021 74 99 4.3 5.2 0.00 0.00 0.00 60 1015.6
20260906182516 74 86 1.7 4.3 0.00 0.00 0.00 58 1015.5
20260906182013 74 343 2.6 2.6 0.00 0.00 0.00 54 1015.7
20260906181508 71 47 1.7 2.6 0.00 0.00 0.00 60 1015.7
20260906181003 72 37 1.7 3.5 0.00 0.00 0.00 58 1015.6
20260906180458 75 357 1.7 4.3 0.00 0.00 0.00 56 1015.5
20260906175956 74 42 1.7 2.6 0.00 0.00 0.00 56 1015.6
20260906175451 74 0 1.7 4.3 0.00 0.00 0.00 57 1015.5
20260906174950 74 31 1.7 3.5 0.00 0.00 0.00 56 1015.5
20260906174449 74 86 2.6 4.3 0.00 0.00 0.00 56 1015.7
20260906173944 73 17 1.7 4.3 0.00 0.00 0.00 60 1015.6
20260906173439 73 348 2.6 3.5 0.00 0.00 0.00 60 1015.5
20260906172938 73 344 1.7 1.7 0.00 0.00 0.00 61 1015.7
20260906172430 73 9 2.6 3.5 0.00 0.00 0.00 61 1015.8
20260906171924 74 60 1.7 3.5 0.00 0.00 0.00 66 1016.0
20260906171419 74 72 2.6 4.3 0.00 0.00 0.00 64 1015.8
20260906170915 74 69 1.7 3.5 0.00 0.00 0.00 60 1015.8
20260906170412 74 61 1.7 2.6 0.00 0.00 0.00 61 1015.6
20260906165908 73 20 1.7 1.7 0.00 0.00 0.00 62 1015.8
20260906165406 72 84 0.9 1.7 0.00 0.00 0.00 66 1015.8
20260906164901 72 13 1.7 4.3 0.00 0.00 0.00 66 1016.2
20260906164354 73 356 2.6 2.6 0.00 0.00 0.00 64 1015.9
20260906163851 73 357 2.6 2.6 0.00 0.00 0.00 62 1016.0
20260906163347 72 49 0.9 2.6 0.00 0.00 0.00 65 1016.0
20260906162845 71 359 1.7 2.6 0.00 0.00 0.00 66 1015.7
20260906162343 72 69 0.9 1.7 0.00 0.00 0.00 67 1016.0
20260906161838 72 11 1.7 3.5 0.00 0.00 0.00 70 1016.1
20260906161337 70 43 1.7 1.7 0.00 0.00 0.00 73 1016.2
20260906160837 69 2 3.5 3.5 0.00 0.00 0.00 72 1016.1
20260906160331 71 0 0.0 1.7 0.00 0.00 0.00 72 1016.0
20260906155829 71 4 2.6 2.6 0.00 0.00 0.00 70 1016.1
20260906155323 71 4 2.6 2.6 0.00 0.00 0.00 70 1016.1
20260906154820 72 0 2.6 3.5 0.00 0.00 0.00 70 1016.0
20260906154314 73 323 0.0 2.6 0.00 0.00 0.00 69 1016.2
20260906153812 72 130 3.5 5.2 0.00 0.00 0.00 72 1016.3
20260906153312 70 1 1.7 1.7 0.00 0.00 0.00 72 1016.1
20260906152807 69 8 3.5 3.5 0.00 0.00 0.00 76 1016.1
20260906152306 69 10 1.7 2.6 0.00 0.00 0.00 76 1016.2
20260906151801 69 350 1.7 3.5 0.00 0.00 0.00 76 1016.3
20260906151257 71 9 3.5 5.2 0.00 0.00 0.00 72 1016.2
20260906150753 71 67 2.6 3.5 0.00 0.00 0.00 76 1016.1
20260906150248 70 85 2.6 4.3 0.00 0.00 0.00 73 1016.3
20260906145747 70 77 2.6 5.2 0.00 0.00 0.00 77 1016.1
20260906145245 70 102 3.5 4.3 0.00 0.00 0.00 76 1016.4
20260906144741 69 24 1.7 2.6 0.00 0.00 0.00 78 1016.3
20260906144236 68 12 2.6 2.6 0.00 0.00 0.00 79 1016.2
20260906143735 68 62 2.6 4.3 0.00 0.00 0.00 83 1016.1
20260906143232 68 73 2.6 2.6 0.00 0.00 0.00 79 1016.1
20260906142732 70 89 1.7 3.5 0.00 0.00 0.00 78 1016.1
20260906142227 69 66 3.5 4.3 0.00 0.00 0.00 80 1016.0
20260906141726 69 94 4.3 7.0 0.00 0.00 0.00 81 1016.0
20260906141221 69 19 1.7 2.6 0.00 0.00 0.00 82 1015.8
20260906140720 68 45 1.7 3.5 0.00 0.00 0.00 81 1015.9
20260906140215 67 12 1.7 2.6 0.00 0.00 0.00 83 1016.1
20260906135712 67 27 2.6 3.5 0.00 0.00 0.00 87 1016.1
20260906135208 68 31 1.7 3.5 0.00 0.00 0.00 85 1016.2
20260906134703 68 29 0.0 3.5 0.00 0.00 0.00 84 1016.0
20260906134159 68 82 1.7 3.5 0.00 0.00 0.00 86 1015.9
20260906133654 67 95 3.5 3.5 0.00 0.00 0.00 86 1015.7
20260906133149 66 79 1.7 3.5 0.00 0.00 0.00 88 1015.8
20260906132639 66 28 1.7 3.5 0.00 0.00 0.00 90 1016.0
20260906132135 65 17 1.7 2.6 0.00 0.00 0.00 92 1015.9
20260906131630 65 10 2.6 3.5 0.00 0.00 0.00 93 1015.8
20260906131125 64 83 2.6 3.5 0.00 0.00 0.00 93 1015.8
20260906130620 63 76 1.7 2.6 0.00 0.00 0.00 96 1015.9
20260906130116 62 56 0.9 1.7 0.00 0.00 0.00 96 1016.0
20260906125613 62 71 1.7 3.5 0.00 0.00 0.00 97 1015.9
20260906125112 61 83 2.6 2.6 0.00 0.00 0.00 99 1015.9
20260906124607 60 118 2.6 3.5 0.00 0.00 0.00 99 1015.8
20260906124102 61 28 1.7 1.7 0.00 0.00 0.00 99 1015.9
20260906123601 59 37 0.9 2.6 0.00 0.00 0.00 99 1015.8
20260906123057 59 23 0.9 2.6 0.00 0.00 0.00 99 1015.8
20260906122555 59 31 1.7 1.7 0.00 0.00 0.00 99 1015.7
20260906122052 58 29 0.0 1.7 0.00 0.00 0.00 99 1016.0
20260906121548 57 75 1.7 1.7 0.00 0.00 0.00 99 1015.6
20260906121044 57 64 1.7 1.7 0.00 0.00 0.00 99 1015.7
20260906120539 57 77 1.7 2.6 0.00 0.00 0.00 99 1015.6
20260906120037 57 92 0.9 1.7 0.00 0.00 0.00 99 1015.6
20260906115531 56 74 0.9 1.7 0.00 0.00 0.00 99 1015.7
20260906115026 56 55 0.9 1.7 0.00 0.00 0.00 99 1015.7
20260906114525 56 61 1.7 1.7 0.00 0.00 0.00 99 1015.5
20260906114021 56 73 0.9 2.6 0.00 0.00 0.00 99 1015.5
20260906113520 55 70 0.0 1.7 0.00 0.00 0.00 99 1015.3
20260906113016 55 42 1.7 1.7 0.00 0.00 0.00 99 1015.4
20260906112510 55 54 1.7 2.6 0.00 0.00 0.00 99 1015.3
20260906112007 55 40 1.7 1.7 0.00 0.00 0.00 99 1015.2
20260906111506 55 66 1.7 1.7 0.00 0.00 0.00 99 1015.6
20260906111001 54 77 1.7 1.7 0.00 0.00 0.00 99 1015.4
20260906110456 54 41 0.0 1.7 0.00 0.00 0.00 99 1015.4
20260906105954 54 359 0.0 0.9 0.00 0.00 0.00 99 1015.1
20260906105451 54 25 0.0 0.9 0.00 0.00 0.00 99 1015.1
20260906104947 54 53 0.0 1.7 0.00 0.00 0.00 99 1015.0
20260906104445 54 38 0.9 1.7 0.00 0.00 0.00 99 1015.1
20260906103944 54 31 0.9 1.7 0.00 0.00 0.00 99 1015.3
20260906103443 54 49 1.7 1.7 0.00 0.00 0.00 99 1015.0
20260906102938 54 38 0.9 1.7 0.00 0.00 0.00 99 1014.9
20260906102432 54 75 1.7 2.6 0.00 0.00 0.00 99 1014.9
20260906101927 54 32 0.9 0.9 0.00 0.00 0.00 99 1014.9
20260906101422 54 69 1.7 1.7 0.00 0.00 0.00 99 1014.9
20260906100918 55 94 0.9 1.7 0.00 0.00 0.00 99 1015.0
20260906100417 55 76 0.9 1.7 0.00 0.00 0.00 99 1014.9
20260906095912 55 33 0.9 1.7 0.00 0.00 0.00 99 1014.7
20260906095408 55 48 1.7 1.7 0.00 0.00 0.00 99 1014.9
20260906094908 54 55 0.0 1.7 0.00 0.00 0.00 99 1014.5
20260906094403 54 49 1.7 1.7 0.00 0.00 0.00 99 1014.6
20260906093859 54 49 0.9 1.7 0.00 0.00 0.00 99 1014.4
20260906093355 54 24 1.7 1.7 0.00 0.00 0.00 99 1014.3
20260906092855 54 63 0.0 1.7 0.00 0.00 0.00 99 1014.4
20260906092349 54 32 0.0 1.7 0.00 0.00 0.00 99 1014.2
20260906091845 54 36 1.7 1.7 0.00 0.00 0.00 99 1014.4
20260906091341 54 19 1.7 2.6 0.00 0.00 0.00 99 1014.1
20260906090837 53 53 0.9 1.7 0.00 0.00 0.00 99 1014.2
20260906090336 53 40 1.7 1.7 0.00 0.00 0.00 99 1014.0
20260906085830 53 24 0.9 0.9 0.00 0.00 0.00 99 1013.9
20260906085329 53 304 0.0 0.9 0.00 0.00 0.00 99 1014.1
20260906084819 53 31 0.9 1.7 0.00 0.00 0.00 99 1013.9
20260906084318 54 54 0.9 1.7 0.00 0.00 0.00 99 1014.0
20260906083813 54 44 0.0 0.0 0.00 0.00 0.00 99 1013.8
20260906083308 54 69 0.0 0.9 0.00 0.00 0.00 99 1014.0
20260906082803 54 32 0.0 0.0 0.00 0.00 0.00 99 1013.8
20260906082258 54 50 0.0 0.9 0.00 0.00 0.00 99 1013.6
20260906081754 54 35 0.9 0.9 0.00 0.00 0.00 99 1013.6
20260906081249 54 50 0.0 0.9 0.00 0.00 0.00 99 1013.8
20260906080746 54 40 0.9 1.7 0.02 0.00 0.00 99 1013.5
20260906080242 54 55 1.7 1.7 0.02 0.00 0.00 99 1013.6
20260906075741 54 32 1.7 1.7 0.00 0.00 0.00 99 1013.8
20260906075241 54 103 0.0 1.7 0.00 0.00 0.00 99 1013.7
20260906074737 54 53 0.0 0.9 0.00 0.00 0.00 99 1013.6
20260906074236 54 59 0.9 0.9 0.00 0.00 0.00 99 1013.5
20260906073736 54 43 1.7 1.7 0.00 0.00 0.00 99 1013.8
20260906073231 54 24 0.9 1.7 0.00 0.00 0.00 99 1013.5
20260906072726 54 44 0.0 1.7 0.00 0.00 0.00 99 1013.7
20260906072222 54 93 0.9 1.7 0.00 0.00 0.00 99 1013.6
20260906071718 55 70 1.7 1.7 0.00 0.00 0.00 99 1013.8
20260906071218 55 55 0.9 1.7 0.00 0.00 0.00 99 1013.6
20260906070714 55 62 1.7 1.7 0.00 0.00 0.00 99 1013.7
20260906070210 55 63 0.0 1.7 0.00 0.00 0.00 99 1013.7
20260906065709 55 87 0.9 1.7 0.00 0.00 0.00 99 1013.6
20260906065205 55 80 1.7 1.7 0.00 0.00 0.00 99 1013.7
20260906064700 55 37 1.7 1.7 0.00 0.00 0.00 99 1013.7
20260906064155 55 54 1.7 1.7 0.00 0.00 0.00 99 1013.7
20260906063650 55 71 1.7 1.7 0.00 0.00 0.00 99 1013.7
20260906063146 55 46 0.0 0.0 0.00 0.00 0.00 99 1013.9
20260906062642 55 103 0.0 0.9 0.00 0.00 0.00 99 1013.8
20260906062140 55 58 0.0 1.7 0.00 0.00 0.00 99 1013.9
20260906061637 55 76 1.7 1.7 0.00 0.00 0.00 99 1014.0
20260906061137 55 73 1.7 1.7 0.00 0.00 0.00 99 1013.9
20260906060633 55 69 0.9 1.7 0.00 0.00 0.00 99 1014.0
20260906060130 55 52 0.0 0.0 0.00 0.00 0.00 99 1013.7
20260906055626 55 78 0.9 1.7 0.00 0.00 0.00 99 1013.9
20260906055120 55 80 1.7 1.7 0.00 0.00 0.00 99 1014.0
20260906054616 55 50 0.9 0.9 0.00 0.00 0.00 99 1013.9
20260906054111 55 43 0.9 0.9 0.00 0.00 0.00 99 1014.0
20260906053608 56 50 0.0 0.9 0.00 0.00 0.00 99 1014.0
20260906053103 56 39 0.9 1.7 0.00 0.00 0.00 99 1014.0
20260906052558 56 93 1.7 1.7 0.00 0.00 0.00 99 1013.9
20260906052055 56 34 0.0 0.9 0.00 0.00 0.00 99 1014.0
20260906051550 56 50 0.9 1.7 0.00 0.00 0.00 99 1013.9
20260906051045 56 83 0.9 0.9 0.00 0.00 0.00 99 1014.2
20260906050535 56 93 0.9 1.7 0.00 0.00 0.00 99 1014.0
20260906050031 56 49 0.9 1.7 0.00 0.00 0.00 99 1014.0
20260906045529 56 22 0.0 0.0 0.00 0.00 0.00 99 1013.9
20260906045024 56 38 0.0 0.0 0.00 0.00 0.00 99 1014.0
20260906044519 56 47 0.0 1.7 0.00 0.00 0.00 99 1014.0
20260906044009 56 91 1.7 1.7 0.00 0.00 0.00 99 1014.0
20260906043505 56 62 1.7 1.7 0.00 0.00 0.00 99 1013.8
20260906043001 56 74 1.7 1.7 0.00 0.00 0.00 99 1014.0
20260906042500 56 35 0.0 0.9 0.00 0.00 0.00 99 1013.9
20260906041959 56 44 0.0 0.9 0.00 0.00 0.00 99 1014.0
20260906041456 56 311 0.0 0.9 0.00 0.00 0.00 99 1014.0
20260906040955 57 321 0.9 0.9 0.00 0.00 0.00 99 1014.0
20260906040450 57 44 0.0 0.9 0.00 0.00 0.00 99 1013.9
20260906035945 57 38 0.0 0.0 0.00 0.00 0.00 99 1013.9
20260906035441 57 60 0.0 0.9 0.00 0.00 0.00 99 1013.8
20260906034936 57 42 0.0 0.9 0.00 0.00 0.00 99 1013.8
20260906034431 57 66 0.9 0.9 0.00 0.00 0.00 99 1013.8
20260906033926 57 37 0.0 1.7 0.00 0.00 0.00 99 1014.0
20260906033421 57 93 1.7 1.7 0.00 0.00 0.00 99 1013.6
20260906032916 57 40 0.9 1.7 0.00 0.00 0.00 99 1013.8
20260906032413 57 21 0.0 0.9 0.00 0.00 0.00 99 1013.6
20260906031907 57 347 0.0 0.9 0.00 0.00 0.00 99 1013.6
20260906031403 57 46 0.9 0.9 0.00 0.00 0.00 99 1013.5
20260906030857 57 95 0.9 1.7 0.00 0.00 0.00 99 1013.5
20260906030352 58 72 1.7 1.7 0.00 0.00 0.00 99 1013.4
20260906025846 58 58 1.7 1.7 0.00 0.00 0.00 99 1013.5
20260906025341 58 46 1.7 1.7 0.00 0.00 0.00 99 1013.7
20260906024840 58 74 1.7 1.7 0.00 0.00 0.00 99 1013.7
20260906024339 58 89 0.0 1.7 0.00 0.00 0.00 99 1013.5
20260906023835 58 77 1.7 1.7 0.00 0.00 0.00 99 1013.7
20260906023330 58 49 0.9 0.9 0.00 0.00 0.00 99 1013.5
20260906022826 58 55 0.0 0.9 0.00 0.00 0.00 99 1013.7
20260906022321 58 80 1.7 1.7 0.00 0.00 0.00 99 1013.5
20260906021816 59 82 0.9 1.7 0.00 0.00 0.00 99 1013.6
20260906021316 59 56 0.9 1.7 0.00 0.00 0.00 99 1013.6
20260906020815 59 51 0.0 1.7 0.00 0.00 0.00 99 1013.6
20260906020315 59 68 1.7 1.7 0.00 0.00 0.00 99 1013.5
20260906015810 59 54 0.0 0.9 0.00 0.00 0.00 99 1013.3
20260906015308 59 32 0.0 0.9 0.00 0.00 0.00 99 1013.5
20260906014803 59 50 0.0 0.0 0.00 0.00 0.00 99 1013.1
20260906014259 59 66 0.0 0.9 0.00 0.00 0.00 99 1013.1
20260906013755 60 50 0.0 0.9 0.00 0.00 0.00 99 1013.3
20260906013255 60 77 0.9 1.7 0.00 0.00 0.00 99 1013.0
20260906012750 60 85 0.9 1.7 0.00 0.00 0.00 99 1013.1
20260906012245 60 65 0.9 0.9 0.00 0.00 0.00 99 1012.9
20260906011740 60 52 0.0 0.9 0.00 0.00 0.00 99 1013.2
20260906011240 61 54 0.9 1.7 0.00 0.00 0.00 99 1013.3
20260906010735 61 34 0.0 0.9 0.00 0.00 0.00 99 1013.0
20260906010232 61 96 0.9 1.7 0.00 0.00 0.00 99 1013.0
20260906005727 61 33 0.9 0.9 0.00 0.00 0.00 99 1013.0
20260906005226 61 344 0.0 0.9 0.00 0.00 0.00 99 1013.2
20260906004725 61 30 0.0 0.9 0.00 0.00 0.00 98 1013.0
20260906004220 62 38 0.0 0.9 0.00 0.00 0.00 98 1012.9
20260906003715 62 44 0.0 0.9 0.00 0.00 0.00 98 1012.6
20260906003211 62 76 0.9 0.9 0.00 0.00 0.00 97 1012.6
20260906002711 62 53 0.9 0.9 0.00 0.00 0.00 97 1012.7
20260906002201 62 45 0.9 0.9 0.00 0.00 0.00 97 1012.5
20260906001656 62 29 0.0 1.7 0.00 0.00 0.00 96 1012.7
20260906001155 63 321 0.9 0.9 0.00 0.00 0.00 96 1012.7
20260906000651 63 89 0.0 0.9 0.00 0.00 0.00 95 1012.7
20260906000146 63 37 0.0 0.0 0.00 0.00 0.00 95 1012.6
20260905235645 64 39 0.0 0.9 0.00 0.00 0.00 94 1012.6
20260905235140 64 80 0.9 1.7 0.00 0.00 0.00 94 1012.3
20260905234635 64 316 0.9 1.7 0.00 0.00 0.00 93 1012.6
20260905234132 64 13 0.0 1.7 0.00 0.00 0.00 92 1012.4
20260905233631 65 79 1.7 1.7 0.00 0.00 0.00 91 1012.7
20260905233125 65 50 0.0 0.9 0.00 0.00 0.00 90 1012.6
20260905232621 66 95 0.9 0.9 0.00 0.00 0.00 90 1012.5
20260905232117 66 44 0.0 0.0 0.00 0.00 0.00 88 1012.6
20260905231617 67 13 0.9 1.7 0.00 0.00 0.00 85 1012.5
20260905231113 68 0 1.7 1.7 0.00 0.00 0.00 83 1012.3
20260905230609 68 20 1.7 2.6 0.00 0.00 0.00 82 1012.3
20260905230106 68 22 2.6 2.6 0.00 0.00 0.00 81 1012.3
20260905225600 68 11 1.7 1.7 0.00 0.00 0.00 81 1012.3
20260905225055 69 13 0.0 1.7 0.00 0.00 0.00 82 1012.3
20260905224555 69 12 1.7 1.7 0.00 0.00 0.00 80 1012.5
20260905224055 70 16 0.9 1.7 0.00 0.00 0.00 78 1012.4
20260905223552 70 22 1.7 1.7 0.00 0.00 0.00 79 1012.3
20260905223048 70 21 0.9 1.7 0.00 0.00 0.00 77 1012.4
20260905222548 70 16 1.7 2.6 0.00 0.00 0.00 77 1012.1
20260905222043 71 320 0.0 1.7 0.00 0.00 0.00 79 1012.2
20260905221540 71 30 0.0 1.7 0.00 0.00 0.00 75 1012.2
20260905221036 71 19 0.9 2.6 0.00 0.00 0.00 75 1012.0
20260905220531 72 15 2.6 2.6 0.00 0.00 0.00 72 1012.1
20260905220027 72 26 1.7 2.6 0.00 0.00 0.00 73 1012.2
20260905215526 73 50 0.0 1.7 0.00 0.00 0.00 70 1011.9
20260905215023 73 26 0.9 1.7 0.00 0.00 0.00 70 1011.9
20260905214518 72 10 1.7 1.7 0.00 0.00 0.00 71 1012.0
20260905214013 72 355 1.7 2.6 0.00 0.00 0.00 72 1011.8
20260905213509 72 0 1.7 2.6 0.00 0.00 0.00 73 1011.8
20260905213004 72 11 1.7 2.6 0.00 0.00 0.00 70 1011.8
20260905212459 72 17 1.7 1.7 0.00 0.00 0.00 71 1011.7
20260905211958 72 50 0.0 2.6 0.00 0.00 0.00 72 1011.8
20260905211454 73 355 1.7 1.7 0.00 0.00 0.00 75 1011.8
20260905210950 73 344 1.7 1.7 0.00 0.00 0.00 70 1011.4
20260905210445 73 18 2.6 3.5 0.00 0.00 0.00 75 1011.5
20260905205944 73 47 0.9 2.6 0.00 0.00 0.00 74 1011.5
20260905205439 72 135 2.6 4.3 0.00 0.00 0.00 74 1011.6
20260905204938 72 40 0.9 1.7 0.00 0.00 0.00 75 1011.7
20260905204434 71 15 1.7 1.7 0.00 0.00 0.00 74 1011.6
20260905203933 71 7 1.7 2.6 0.00 0.00 0.00 73 1011.4
20260905203429 72 0 2.6 2.6 0.00 0.00 0.00 71 1011.5
20260905202924 73 353 3.5 3.5 0.00 0.00 0.00 72 1011.4
20260905202419 74 34 0.9 1.7 0.00 0.00 0.00 70 1011.6
20260905201915 74 348 1.7 2.6 0.00 0.00 0.00 68 1011.4
20260905201409 75 7 1.7 3.5 0.00 0.00 0.00 66 1011.6
20260905200904 75 6 3.5 3.5 0.00 0.00 0.00 67 1011.5
20260905200400 74 41 1.7 1.7 0.00 0.00 0.00 73 1011.6
20260905195857 72 36 0.9 2.6 0.00 0.00 0.00 72 1011.6
20260905195353 72 13 0.9 1.7 0.00 0.00 0.00 73 1011.5
20260905194849 72 266 0.9 1.7 0.00 0.00 0.00 73 1011.6
20260905194348 72 20 0.9 1.7 0.00 0.00 0.00 76 1011.7
20260905193847 71 13 0.9 1.7 0.00 0.00 0.00 76 1011.6
20260905193342 72 337 1.7 2.6 0.00 0.00 0.00 73 1011.5
20260905192838 72 29 0.9 3.5 0.00 0.00 0.00 72 1011.6
20260905192334 74 106 0.9 2.6 0.00 0.00 0.00 67 1011.6
20260905191833 75 311 1.7 2.6 0.00 0.00 0.00 68 1011.4
20260905191332 74 130 2.6 6.1 0.00 0.00 0.00 68 1011.6
20260905190831 73 69 0.9 1.7 0.00 0.00 0.00 72 1011.7
20260905190325 72 18 0.9 1.7 0.00 0.00 0.00 74 1011.7
20260905185823 72 48 1.7 1.7 0.00 0.00 0.00 74 1011.6
20260905185319 72 23 2.6 3.5 0.00 0.00 0.00 73 1011.7
20260905184812 72 328 3.5 3.5 0.00 0.00 0.00 76 1011.8